Tracking 29892 objects as of 21-Nov-2024
HD Live streaming from Space Station
objects crossing your sky now

STARLINK-32387

Track STARLINK-32387 now!
10-day predictions
STARLINK-32387 is classified as:


NORAD ID: 61704
Int'l Code: 2024-195T
Perigee: 399.0 km
Apogee: 400.6 km
Inclination: 53.2 °
Period: 92.4 minutes
Semi major axis: 6770 km
RCS: Unknown
Launch date: October 30, 2024
Source: United States (US)
Launch site: AIR FORCE WESTERN TEST RANGE (AFWTR)
Your satellite tracking list
Your tracking list is empty




NASA's NSSDC Master Catalog

Two Line Element Set (TLE):
1 61704U 24195T   24325.91668981 -.01498804  00000-0 -21786-1 0  9994
2 61704  53.1592 203.6192 0001174  74.1909  59.1043 15.58283564  4475
Source of the keplerian elements: AFSPC